User: anonymous   Login
Location: Unspecified
(0.0000°N, 0.0000°E)
Time: 11:03:50
(UTC+00:00)
Language:

NNS O-2 - Orbit

View from above orbital plane
View from above orbital plane
View from above satellite
View from above satellite

Ground track
Ground track

The orbit data is extracted from the following two-line orbital elements,

1   965U 64083D   17268.88018389 +.00000024 +00000-0 +20125-4 0  9990
2   965 090.0160 191.8105 0038667 231.1485 198.6116 13.56706172611656
Epoch (UTC): 25 September 2017 21:07:27
Eccentricity: 0.0038667
inclination: 90.0160°
perigee height: 1019 km
apogee height: 1076 km
right ascension of ascending node: 191.8105°
argument of perigee: 231.1485°
revolutions per day: 13.56706172
mean anomaly at epoch: 198.6116°
orbit number at epoch: 61165

The dashed part of the orbit path shows where the satellite is in the earth's shadow,  

DLR